"Timestamp","TZ","WindDir_Mean (deg)","WindSpd_Mean (km/h)","WindSpd_Min (km/h)","WindSpd_Max (km/h)","Temp_Mean (deg)","RH_Mean (%)","MSLP_Mean (hPa)","Rain_Acc (mm)","Rain_Intensity (mm/h)","Hail_Acc (hits/cm2)","Hail_Intensity (hits/cm2hr)","Solar_Mean (W/m2)"
2021/08/24 00:00:00.004,n,19,10.8,6.12,12.6,18.6,71,1015.62,0,0,0,0,0.027885
2021/08/24 00:01:00.002,n,33,5.04,3.96,7.2,18.5,71.1,1015.62,0,0,0,0,0.023537
2021/08/24 00:02:00.000,n,337,9.36,8.64,10.08,18.5,71.1,1015.52,0,0,0,0,0.020905
2021/08/24 00:03:00.000,n,24,8.64,7.56,10.440002,18.5,71.1,1015.52,0,0,0,0,0.024376
2021/08/24 00:04:00.000,n,16,6.12,3.6,8.28,18.5,71.2,1015.52,0,0,0,0,0.020905
2021/08/24 00:05:00.006,n,4,9.72,5.4,11.88,18.5,71.1,1015.52,0,0,0,0,0.021782
2021/08/24 00:06:00.003,n,8,10.8,7.56,12.6,18.5,71.2,1015.52,0,0,0,0,0.023537
2021/08/24 00:07:00.000,n,0,14.04,12.96,15.48,18.5,71.2,1015.52,0,0,0,0,0.023537
2021/08/24 00:08:00.014,n,354,12.24,11.16,12.6,18.5,71.2,1015.52,0,0,0,0,0.021782
2021/08/24 00:09:00.012,n,8,6.84,6.84,7.56,18.5,71.2,1015.52,0,0,0,0,0.020905
2021/08/24 00:10:00.000,n,20,2.88,1.08,4.68,18.5,71.2,1015.52,0,0,0,0,0.025253
2021/08/24 00:11:00.000,n,3,6.84,4.68,10.08,18.5,71.2,1015.52,0,0,0,0,0.024376
2021/08/24 00:12:00.002,n,352,7.2,5.76,9,18.5,71.1,1015.52,0,0,0,0,0.025253
2021/08/24 00:13:00.000,n,34,10.8,9.72,12.96,18.5,71.1,1015.52,0,0,0,0,0.022659
2021/08/24 00:14:00.000,n,9,6.48,5.04,7.92,18.5,71,1015.52,0,0,0,0,0.021782
2021/08/24 00:15:00.009,n,11,10.8,10.08,11.88,18.5,70.9,1015.52,0,0,0,0,0.01915
2021/08/24 00:16:00.006,n,59,4.68,1.08,9,18.5,70.9,1015.52,0,0,0,0,0.020905
2021/08/24 00:17:00.004,n,17,9,5.76,11.52,18.5,70.9,1015.52,0,0,0,0,0.023537
2021/08/24 00:18:00.001,n,356,5.4,1.8,8.64,18.5,70.9,1015.52,0,0,0,0,0.023537
2021/08/24 00:19:00.000,n,24,7.56,6.12,10.08,18.5,70.7,1015.52,0,0,0,0,0.023537
2021/08/24 00:20:00.000,n,9,13.68,11.88,14.76,18.5,70.6,1015.52,0,0,0,0,0.025253
2021/08/24 00:21:00.000,n,356,5.04,3.96,6.84,18.6,70.6,1015.52,0,0,0,0,0.01915
2021/08/24 00:22:00.006,n,15,13.68,11.52,16.919998,18.6,70.4,1015.52,0,0,0,0,0.02697
2021/08/24 00:23:00.000,n,28,10.08,9,10.8,18.6,70.4,1015.52,0,0,0,0,0.033112
2021/08/24 00:24:00.000,n,9,15.12,14.76,15.84,18.6,70.2,1015.52,0,0,0,0,0.033112
2021/08/24 00:25:00.010,n,9,6.84,3.24,7.92,18.6,70.2,1015.52,0,0,0,0,0.032196
2021/08/24 00:26:00.008,n,348,6.84,6.12,7.56,18.6,70.2,1015.52,0,0,0,0,0.032196
2021/08/24 00:27:00.004,n,12,11.52,10.8,12.6,18.6,70.1,1015.42,0,0,0,0,0.034828
2021/08/24 00:28:00.002,n,336,12.24,10.440002,14.04,18.6,70,1015.42,0,0,0,0,0.034828
2021/08/24 00:29:00.000,n,27,6.12,5.4,7.92,18.6,70.1,1015.52,0,0,0,0,0.033951
2021/08/24 00:30:00.000,n,12,9.72,7.92,12.96,18.6,69.9,1015.42,0,0,0,0,0.035706
2021/08/24 00:31:00.000,n,29,10.440002,3.96,12.6,18.6,69.9,1015.42,0,0,0,0,0.029602
2021/08/24 00:32:00.006,n,20,5.4,3.24,8.28,18.6,69.9,1015.42,0,0,0,0,0.035706
2021/08/24 00:33:00.004,n,33,5.76,1.8,10.8,18.6,69.9,1015.52,0,0,0,0,0.033112
2021/08/24 00:34:00.000,n,353,2.52,1.44,3.96,18.6,69.9,1015.52,0,0,0,0,0.034828
2021/08/24 00:35:00.013,n,325,5.76,5.04,6.84,18.6,70,1015.52,0,0,0,0,0.031357
2021/08/24 00:36:00.010,n,72,4.68,2.88,7.2,18.6,69.8,1015.52,0,0,0,0,0.03746
2021/08/24 00:37:00.000,n,351,10.440002,7.56,11.88,18.6,69.7,1015.52,0,0,0,0,0.033112
2021/08/24 00:38:00.000,n,338,12.6,10.8,14.04,18.7,69.8,1015.52,0,0,0,0,0.031357
2021/08/24 00:39:00.002,n,28,3.96,2.88,5.4,18.6,69.6,1015.42,0,0,0,0,0.032196
2021/08/24 00:40:00.000,n,24,9.36,4.68,12.6,18.6,69.6,1015.42,0,0,0,0,0.038338
2021/08/24 00:41:00.000,n,10,7.92,6.84,8.64,18.6,69.6,1015.42,0,0,0,0,0.035706
2021/08/24 00:42:00.009,n,35,4.68,3.24,5.4,18.6,69.6,1015.42,0,0,0,0,0.03746
2021/08/24 00:43:00.006,n,29,6.84,6.12,7.2,18.6,69.6,1015.42,0,0,0,0,0.038338
2021/08/24 00:44:00.003,n,45,13.68,9,16.919998,18.6,69.6,1015.32,0,0,0,0,0.040054
2021/08/24 00:45:00.001,n,6,9.72,7.92,11.16,18.6,69.5,1015.32,0,0,0,0,0.03746
2021/08/24 00:46:00.000,n,12,5.04,1.8,8.64,18.6,69.6,1015.32,0,0,0,0,0.03746
2021/08/24 00:47:00.002,n,14,10.440002,9.36,11.88,18.6,69.5,1015.32,0,0,0,0,0.03746
2021/08/24 00:48:00.003,n,23,6.48,5.76,7.2,18.6,69.5,1015.22,0,0,0,0,0.035706
2021/08/24 00:49:00.000,n,7,12.24,10.8,14.04,18.6,69.5,1015.22,0,0,0,0,0.036545
2021/08/24 00:50:00.000,n,46,7.56,5.76,9,18.6,69.6,1015.22,0,0,0,0,0.033112
2021/08/24 00:51:00.000,n,8,9,8.28,9.72,18.6,69.6,1015.22,0,0,0,0,0.035706
2021/08/24 00:52:00.008,n,35,13.68,9.36,15.84,18.6,69.5,1015.12,0,0,0,0,0.03746
2021/08/24 00:53:00.005,n,7,8.64,7.2,9.72,18.6,69.5,1015.12,0,0,0,0,0.03746
2021/08/24 00:54:00.001,n,34,7.92,2.88,11.52,18.6,69.6,1015.12,0,0,0,0,0.035706
2021/08/24 00:55:00.000,n,21,7.2,6.84,7.92,18.6,69.6,1015.12,0,0,0,0,0.036545
2021/08/24 00:56:00.000,n,3,15.48,13.32,16.919998,18.6,69.6,1015.12,0,0,0,0,0.035706
2021/08/24 00:57:00.000,n,24,10.8,9.72,12.24,18.6,69.6,1015.12,0,0,0,0,0.041771
2021/08/24 00:58:00.006,n,26,7.2,3.24,9.72,18.6,69.6,1015.12,0,0,0,0,0.040054
2021/08/24 00:59:00.003,n,9,15.12,13.32,16.56,18.6,69.6,1015.02,0,0,0,0,0.044403
2021/08/24 01:00:00.000,n,337,16.919998,14.04,20.519998,18.6,69.6,1015.02,0,0,0,0,0.03746
2021/08/24 01:01:00.000,n,22,10.8,8.28,13.68,18.6,69.6,1015.02,0,0,0,0,0.040054
2021/08/24 01:02:00.010,n,35,7.56,4.68,9.72,18.6,69.5,1015.12,0,0,0,0,0.03746
2021/08/24 01:03:00.008,n,24,5.4,3.96,6.84,18.6,69.5,1015.12,0,0,0,0,0.043526
2021/08/24 01:04:00.000,n,347,7.92,6.48,9,18.6,69.5,1015.12,0,0,0,0,0.039177
2021/08/24 01:05:00.002,n,29,7.56,3.24,9.72,18.6,69.5,1015.22,0,0,0,0,0.036545
2021/08/24 01:06:00.000,n,13,7.92,5.76,9.72,18.6,69.5,1015.22,0,0,0,0,0.041771
2021/08/24 01:07:00.000,n,342,7.56,6.84,8.28,18.6,69.9,1015.22,0,0,0,0,0.039177
2021/08/24 01:08:00.000,n,340,10.08,9.36,10.440002,18.6,69.5,1015.32,0,0,0,0,0.03746
2021/08/24 01:09:00.007,n,351,9.72,9,10.440002,18.6,69.6,1015.32,0,0,0,0,0.040932
2021/08/24 01:10:00.004,n,332,6.84,5.04,8.28,18.6,69.6,1015.32,0,0,0,0,0.039177
2021/08/24 01:11:00.002,n,29,6.12,5.04,7.2,18.6,70,1015.32,0,0,0,0,0.040054
2021/08/24 01:12:00.015,n,8,5.76,5.04,7.2,18.6,69.7,1015.32,0,0,0,0,0.038338
2021/08/24 01:13:00.000,n,354,11.16,10.440002,12.24,18.6,69.7,1015.22,0,0,0,0,0.043526
2021/08/24 01:14:00.000,n,13,5.04,1.44,8.64,18.5,69.7,1015.22,0,0,0,0,0.038338
2021/08/24 01:15:00.000,n,36,7.92,5.04,9.36,18.5,69.7,1015.12,0,0,0,0,0.039177
2021/08/24 01:16:00.005,n,13,6.48,6.12,6.84,18.5,69.8,1015.02,0,0,0,0,0.039177
2021/08/24 01:17:00.002,n,22,5.04,4.68,5.4,18.5,69.8,1014.92,0,0,0,0,0.038338
2021/08/24 01:18:00.000,n,0,7.92,6.48,9,18.5,69.9,1014.92,0,0,0,0,0.036545
2021/08/24 01:19:00.000,n,34,3.24,2.52,4.32,18.5,69.9,1015.02,0,0,0,0,0.039177
2021/08/24 01:20:00.010,n,357,11.16,9.72,12.24,18.5,69.9,1015.02,0,0,0,0,0.036545
2021/08/24 01:21:00.008,n,0,10.8,9.36,12.24,18.5,69.9,1015.02,0,0,0,0,0.03746
2021/08/24 01:22:00.000,n,29,3.24,1.08,5.4,18.5,69.9,1015.02,0,0,0,0,0.036545
2021/08/24 01:23:00.002,n,339,5.76,5.04,6.48,18.5,69.9,1015.02,0,0,0,0,0.038338
2021/08/24 01:24:00.000,n,20,7.2,7.2,7.92,18.5,69.8,1015.02,0,0,0,0,0.03746
2021/08/24 01:25:00.000,n,28,2.52,1.08,5.76,18.5,69.8,1014.92,0,0,0,0,0.038338
2021/08/24 01:26:00.000,n,351,11.16,10.440002,11.88,18.5,69.8,1014.92,0,0,0,0,0.038338
2021/08/24 01:27:00.008,n,10,5.04,3.6,7.92,18.5,69.8,1014.92,0,0,0,0,0.040932
2021/08/24 01:28:00.005,n,13,13.32,12.24,14.04,18.5,69.8,1014.82,0,0,0,0,0.033112
2021/08/24 01:29:00.003,n,26,11.88,8.28,18.72,18.5,69.9,1014.82,0,0,0,0,0.034828
2021/08/24 01:30:00.000,n,14,15.48,14.76,16.2,18.5,69.8,1014.92,0,0,0,0,0.040932
2021/08/24 01:31:00.000,n,91,4.68,2.52,6.84,18.5,70,1014.92,0,0,0,0,0.035706
2021/08/24 01:32:00.000,n,9,10.440002,10.08,10.8,18.5,69.8,1014.92,0,0,0,0,0.034828
2021/08/24 01:33:00.000,n,13,8.28,6.12,9.72,18.5,70,1014.92,0,0,0,0,0.040054
2021/08/24 01:34:00.004,n,13,16.2,14.04,18.359998,18.5,69.9,1014.92,0,0,0,0,0.03746
2021/08/24 01:35:00.001,n,24,11.52,7.92,18.359998,18.6,69.8,1014.92,0,0,0,0,0.040054
2021/08/24 01:36:00.000,n,327,4.32,0.72,7.92,18.6,69.7,1014.92,0,0,0,0,0.03746
2021/08/24 01:37:00.012,n,3,13.68,10.440002,15.12,18.6,69.8,1014.92,0,0,0,0,0.040054
2021/08/24 01:38:00.009,n,355,18.72,17.28,20.16,18.6,69.7,1014.92,0,0,0,0,0.038338
2021/08/24 01:39:00.008,n,58,9.72,7.56,12.24,18.7,69.6,1014.82,0,0,0,0,0.036545
2021/08/24 01:40:00.000,n,334,5.04,2.88,7.56,18.7,69.6,1014.82,0,0,0,0,0.03746
2021/08/24 01:41:00.002,n,14,6.84,6.48,7.56,18.7,69.6,1014.82,0,0,0,0,0.038338
2021/08/24 01:42:00.000,n,19,6.12,4.32,8.64,18.7,69.5,1014.82,0,0,0,0,0.039177
2021/08/24 01:43:00.000,n,213,5.04,1.08,10.440002,18.7,69.5,1014.82,0,0,0,0,0.033951
2021/08/24 01:44:00.000,n,39,10.440002,8.64,12.96,18.7,69.5,1014.82,0,0,0,0,0.036545
2021/08/24 01:45:00.007,n,9,7.2,6.12,8.28,18.7,69.5,1014.82,0,0,0,0,0.034828
2021/08/24 01:46:00.004,n,39,10.8,6.84,14.4,18.7,69.5,1014.72,0,0,0,0,0.033951
2021/08/24 01:47:00.000,n,10,17.64,15.48,19.8,18.7,69.5,1014.72,0,0,0,0,0.035706
2021/08/24 01:48:00.014,n,15,13.32,12.24,14.4,18.8,69.5,1014.62,0,0,0,0,0.036545
2021/08/24 01:49:00.000,n,333,11.88,5.04,15.12,18.8,69.6,1014.62,0,0,0,0,0.035706
2021/08/24 01:50:00.000,n,356,14.4,14.04,14.76,18.8,69.6,1014.52,0,0,0,0,0.035706
2021/08/24 01:51:00.000,n,11,10.440002,9.72,12.24,18.8,69.6,1014.52,0,0,0,0,0.033112
2021/08/24 01:52:00.001,n,24,18,16.2,21.599998,18.8,69.6,1014.52,0,0,0,0,0.03746
2021/08/24 01:53:00.000,n,19,7.92,5.4,9.72,18.8,69.5,1014.52,0,0,0,0,0.038338
2021/08/24 01:54:00.000,n,16,14.04,12.6,16.56,18.8,69.6,1014.52,0,0,0,0,0.033112
2021/08/24 01:55:00.009,n,16,6.12,1.8,8.64,18.8,69.6,1014.52,0,0,0,0,0.036545
2021/08/24 01:56:00.006,n,355,11.88,10.440002,14.4,18.8,69.6,1014.42,0,0,0,0,0.033112
2021/08/24 01:57:00.003,n,353,11.88,10.8,13.32,18.7,69.7,1014.52,0,0,0,0,0.031357
2021/08/24 01:58:00.000,n,347,8.28,6.84,9.72,18.7,69.7,1014.52,0,0,0,0,0.031357
2021/08/24 01:59:00.000,n,3,9.36,7.2,10.8,18.7,70,1014.62,0,0,0,0,0.033951
2021/08/24 02:00:00.000,n,8,4.32,2.16,6.84,18.7,70.1,1014.62,0,0,0,0,0.031357
2021/08/24 02:01:00.000,n,0,14.04,11.88,15.84,18.7,69.9,1014.62,0,0,0,0,0.030479
2021/08/24 02:02:00.003,n,357,5.76,3.6,7.2,18.7,70.4,1014.62,0,0,0,0,0.034828
2021/08/24 02:03:00.001,n,344,12.96,11.88,17.28,18.7,69.9,1014.62,0,0,0,0,0.036545
2021/08/24 02:04:00.000,n,9,14.76,13.32,16.2,18.7,70.2,1014.62,0,0,0,0,0.036545
2021/08/24 02:05:00.011,n,341,4.68,1.44,9.72,18.7,69.9,1014.62,0,0,0,0,0.032196
2021/08/24 02:06:00.008,n,7,16.919998,16.2,18,18.6,70,1014.62,0,0,0,0,0.036545
2021/08/24 02:07:00.000,n,47,9.72,5.76,14.04,18.6,70.2,1014.62,0,0,0,0,0.031357
2021/08/24 02:08:00.002,n,3,9,6.84,12.96,18.6,70.1,1014.52,0,0,0,0,0.031357
2021/08/24 02:09:00.000,n,9,21.24,20.880002,22.319998,18.6,70.3,1014.42,0,0,0,0,0.033951
2021/08/24 02:10:00.000,n,10,11.16,6.48,12.6,18.5,70.3,1014.42,0,0,0,0,0.034828
2021/08/24 02:11:00.000,n,83,2.52,1.08,3.96,18.5,70.4,1014.42,0,0,0,0,0.034828
2021/08/24 02:12:00.007,n,5,8.64,6.84,9.36,18.5,71,1014.42,0,0,0,0,0.031357
2021/08/24 02:13:00.004,n,353,9.72,6.84,13.32,18.5,70.6,1014.42,0,0,0,0,0.038338
2021/08/24 02:14:00.001,n,343,13.68,12.96,14.4,18.5,70.6,1014.42,0,0,0,0,0.033112
2021/08/24 02:15:00.015,n,353,7.56,6.48,9,18.5,70.7,1014.42,0,0,0,0,0.034828
2021/08/24 02:16:00.000,n,17,6.48,3.6,10.08,18.5,70.8,1014.42,0,0,0,0,0.034828
2021/08/24 02:17:00.000,n,355,11.88,11.88,13.32,18.5,70.8,1014.32,0,0,0,0,0.032196
2021/08/24 02:18:00.000,n,350,10.8,10.440002,11.52,18.5,70.8,1014.42,0,0,0,0,0.031357
2021/08/24 02:19:00.005,n,17,8.28,7.2,9,18.4,70.8,1014.42,0,0,0,0,0.028763
2021/08/24 02:20:00.002,n,352,8.64,8.28,9,18.4,70.9,1014.42,0,0,0,0,0.031357
2021/08/24 02:21:00.000,n,355,11.16,7.56,12.24,18.4,70.9,1014.42,0,0,0,0,0.033112
2021/08/24 02:22:00.012,n,347,5.04,2.16,6.84,18.4,71,1014.42,0,0,0,0,0.030479
2021/08/24 02:23:00.010,n,7,4.32,3.96,5.04,18.4,71.4,1014.52,0,0,0,0,0.033112
2021/08/24 02:24:00.008,n,353,13.32,10.8,14.76,18.4,71.2,1014.42,0,0,0,0,0.032196
2021/08/24 02:25:00.000,n,344,11.52,9.36,13.32,18.4,71.2,1014.42,0,0,0,0,0.034828
2021/08/24 02:26:00.001,n,33,8.64,7.92,9.36,18.4,71.1,1014.42,0,0,0,0,0.032196
2021/08/24 02:27:00.000,n,33,5.4,4.68,6.84,18.4,71.2,1014.32,0,0,0,0,0.034828
2021/08/24 02:28:00.000,n,340,14.76,9.72,16.919998,18.4,71.2,1014.22,0,0,0,0,0.027847
2021/08/24 02:29:00.000,n,6,11.88,10.8,13.68,18.4,71.2,1014.22,0,0,0,0,0.031357
2021/08/24 02:30:00.005,n,290,2.88,1.44,4.32,18.4,71.4,1014.12,0,0,0,0,0.031357
2021/08/24 02:31:00.002,n,346,16.919998,12.96,22.319998,18.5,71.4,1014.12,0,0,0,0,0.033951
2021/08/24 02:32:00.000,n,3,15.48,13.68,17.64,18.5,71.6,1014.12,0,0,0,0,0.032196
2021/08/24 02:33:00.013,n,39,9,2.88,14.04,18.5,71.2,1014.12,0,0,0,0,0.027847
2021/08/24 02:34:00.000,n,355,14.04,9.36,15.12,18.5,71.2,1014.12,0,0,0,0,0.029602
2021/08/24 02:35:00.000,n,355,13.68,11.16,15.12,18.5,71.2,1014.12,0,0,0,0,0.029602
2021/08/24 02:36:00.000,n,9,11.88,9.72,12.96,18.5,71.3,1014.12,0,0,0,0,0.027847
2021/08/24 02:37:00.003,n,12,12.6,12.24,14.4,18.5,71.3,1014.12,0,0,0,0,0.029602
2021/08/24 02:38:00.000,n,355,11.52,9,12.96,18.5,71.3,1014.12,0,0,0,0,0.030479
2021/08/24 02:39:00.000,n,16,11.88,9.72,14.4,18.5,71.3,1014.02,0,0,0,0,0.029602
2021/08/24 02:40:00.010,n,8,7.92,6.84,9.36,18.4,71.4,1014.02,0,0,0,0,0.033951
2021/08/24 02:41:00.007,n,14,14.04,12.6,17.28,18.4,71.5,1014.02,0,0,0,0,0.029602
2021/08/24 02:42:00.005,n,35,11.52,9.36,13.68,18.4,71.5,1014.02,0,0,0,0,0.030479
2021/08/24 02:43:00.000,n,8,7.92,7.56,8.64,18.4,71.5,1013.92,0,0,0,0,0.032196
2021/08/24 02:44:00.001,n,357,11.16,9.72,12.6,18.5,71.5,1013.82,0,0,0,0,0.028763
2021/08/24 02:45:00.000,n,27,8.28,5.76,10.440002,18.5,71.5,1013.82,0,0,0,0,0.027847
2021/08/24 02:46:00.000,n,42,6.84,4.32,9,18.5,71.7,1013.82,0,0,0,0,0.030479
2021/08/24 02:47:00.008,n,335,2.88,1.08,6.12,18.5,71.7,1013.82,0,0,0,0,0.028763
2021/08/24 02:48:00.005,n,17,20.880002,15.84,24.48,18.5,71.6,1013.72,0,0,0,0,0.029602
2021/08/24 02:49:00.002,n,18,14.4,9.72,17.28,18.5,71.6,1013.82,0,0,0,0,0.028763
2021/08/24 02:50:00.000,n,34,15.12,8.64,18.72,18.5,71.6,1013.72,0,0,0,0,0.031357
2021/08/24 02:51:00.012,n,59,6.48,4.32,8.64,18.5,71.6,1013.72,0,0,0,0,0.027847
2021/08/24 02:52:00.000,n,352,11.88,6.84,16.56,18.6,71.7,1013.72,0,0,0,0,0.035706
2021/08/24 02:53:00.000,n,13,19.08,17.28,20.880002,18.6,71.7,1013.62,0,0,0,0,0.031357
2021/08/24 02:54:00.003,n,43,6.48,2.52,14.4,18.6,71.6,1013.62,0,0,0,0,0.030479
2021/08/24 02:55:00.000,n,27,11.52,10.440002,12.24,18.6,71.6,1013.62,0,0,0,0,0.029602
2021/08/24 02:56:00.000,n,0,17.64,15.84,18.72,18.6,71.5,1013.62,0,0,0,0,0.02697
2021/08/24 02:57:00.000,n,140,3.96,1.08,9,18.6,71.5,1013.62,0,0,0,0,0.031357
2021/08/24 02:58:00.008,n,16,18.72,16.919998,20.16,18.6,71.4,1013.52,0,0,0,0,0.026131
2021/08/24 02:59:00.006,n,347,11.52,10.08,13.32,18.7,71.3,1013.62,0,0,0,0,0.030479
2021/08/24 03:00:00.003,n,11,9,6.48,10.08,18.7,71.2,1013.62,0,0,0,0,0.028763
2021/08/24 03:01:00.000,n,357,8.64,6.12,11.16,18.7,71.3,1013.62,0,0,0,0,0.028763
2021/08/24 03:02:00.000,n,17,14.76,12.24,18.359998,18.7,71.1,1013.62,0,0,0,0,0.030479
2021/08/24 03:03:00.000,n,16,13.68,11.88,15.84,18.7,71.1,1013.62,0,0,0,0,0.028763
2021/08/24 03:04:00.000,n,349,14.76,11.52,18,18.7,71,1013.62,0,0,0,0,0.031357
2021/08/24 03:05:00.006,n,349,20.880002,16.2,24.84,18.7,71.1,1013.52,0,0,0,0,0.031357
2021/08/24 03:06:00.004,n,343,11.16,9.72,12.6,18.7,70.7,1013.62,0,0,0,0,0.033112
2021/08/24 03:07:00.001,n,23,3.96,1.44,10.8,18.7,70.7,1013.52,0,0,0,0,0.032196
2021/08/24 03:08:00.014,n,25,7.92,5.04,10.08,18.7,70.8,1013.52,0,0,0,0,0.031357
2021/08/24 03:09:00.011,n,34,4.68,3.24,6.12,18.7,70.7,1013.42,0,0,0,0,0.02697
2021/08/24 03:10:00.000,n,19,15.48,12.96,19.8,18.7,70.7,1013.42,0,0,0,0,0.026131
2021/08/24 03:11:00.000,n,107,4.32,2.16,7.56,18.7,70.8,1013.42,0,0,0,0,0.027847
2021/08/24 03:12:00.003,n,340,14.04,9.72,18.359998,18.7,70.7,1013.32,0,0,0,0,0.026131
2021/08/24 03:13:00.001,n,13,14.4,7.92,18.359998,18.7,70.8,1013.42,0,0,0,0,0.028763
2021/08/24 03:14:00.000,n,29,11.16,10.08,12.6,18.7,70.7,1013.32,0,0,0,0,0.02697
2021/08/24 03:15:00.000,n,171,1.8,0.36,3.24,18.7,71.1,1013.32,0,0,0,0,0.028763
2021/08/24 03:16:00.009,n,17,11.88,5.4,14.76,18.8,70.8,1013.32,0,0,0,0,0.028763
2021/08/24 03:17:00.007,n,30,9.72,6.48,10.8,18.8,70.6,1013.32,0,0,0,0,0.026131
2021/08/24 03:18:00.003,n,26,8.64,4.68,14.04,18.8,70.6,1013.32,0,0,0,0,0.027847
2021/08/24 03:19:00.001,n,356,19.08,15.12,21.599998,18.8,70.6,1013.32,0,0,0,0,0.024376
2021/08/24 03:20:00.000,n,293,5.76,5.04,6.84,18.8,71.2,1013.42,0,0,0,0,0.025253
2021/08/24 03:21:00.000,n,19,12.96,6.48,15.84,18.8,70.6,1013.32,0,0,0,0,0.028763
2021/08/24 03:22:00.000,n,309,5.76,3.96,7.2,18.8,71.2,1013.42,0,0,0,0,0.02697
2021/08/24 03:23:00.005,n,5,12.96,7.92,18.359998,18.8,70.9,1013.32,0,0,0,0,0.026131
2021/08/24 03:24:00.002,n,25,13.32,11.16,15.12,18.8,70.7,1013.42,0,0,0,0,0.030479
2021/08/24 03:25:00.000,n,315,7.2,6.84,8.64,18.8,71.5,1013.42,0,0,0,0,0.026131
2021/08/24 03:26:00.012,n,19,11.16,10.08,12.24,18.8,70.6,1013.42,0,0,0,0,0.024376
2021/08/24 03:27:00.009,n,5,9.36,6.48,10.8,18.7,70.8,1013.42,0,0,0,0,0.028763
2021/08/24 03:28:00.000,n,355,6.12,5.04,7.56,18.7,70.7,1013.42,0,0,0,0,0.027847
2021/08/24 03:29:00.000,n,356,11.16,9.72,11.88,18.7,70.8,1013.42,0,0,0,0,0.027847
2021/08/24 03:30:00.000,n,0,5.04,2.16,8.28,18.7,70.8,1013.42,0,0,0,0,0.033112
2021/08/24 03:31:00.000,n,0,10.440002,8.28,11.52,18.7,70.8,1013.42,0,0,0,0,0.027847
2021/08/24 03:32:00.000,n,345,3.6,2.16,5.4,18.7,72.1,1013.42,0,0,0,0,0.031357
2021/08/24 03:33:00.007,n,357,18.72,17.28,19.8,18.8,70.9,1013.32,0,0,0,0,0.027847
2021/08/24 03:34:00.004,n,0,5.4,3.6,8.64,18.8,71.7,1013.32,0,0,0,0,0.029602
2021/08/24 03:35:00.002,n,354,23.4,20.880002,25.199998,18.8,70.8,1013.22,0,0,0,0,0.033112
2021/08/24 03:36:00.015,n,34,5.76,3.24,7.92,18.7,70.7,1013.32,0,0,0,0,0.031357
2021/08/24 03:37:00.000,n,346,13.32,10.08,18.359998,18.7,70.8,1013.22,0,0,0,0,0.030479
2021/08/24 03:38:00.000,n,349,9.36,5.4,11.52,18.7,70.9,1013.22,0,0,0,0,0.034828
2021/08/24 03:39:00.000,n,30,5.04,2.16,9,18.7,70.9,1013.22,0,0,0,0,0.029602
2021/08/24 03:40:00.004,n,270,8.28,6.84,10.08,18.6,71.4,1013.22,0,0,0,0,0.030479
2021/08/24 03:41:00.002,n,340,6.48,4.32,7.56,18.6,71.7,1013.22,0,0,0,0,0.036545
2021/08/24 03:42:00.000,n,357,16.56,14.04,18.72,18.6,71,1013.22,0,0,0,0,0.032196
2021/08/24 03:43:00.011,n,357,11.88,10.08,14.04,18.6,71,1013.22,0,0,0,0,0.030479
2021/08/24 03:44:00.008,n,310,10.440002,6.84,13.32,18.6,72.8,1013.22,0,0,0,0,0.030479
2021/08/24 03:45:00.006,n,352,3.6,1.08,5.76,18.7,72.4,1013.22,0,0,0,0,0.028763
2021/08/24 03:46:00.000,n,64,4.68,1.44,7.92,18.7,71.1,1013.22,0,0,0,0,0.031357
2021/08/24 03:47:00.000,n,339,6.12,3.96,7.56,18.6,71.4,1013.22,0,0,0,0,0.027847
2021/08/24 03:48:00.000,n,3,11.52,9,12.96,18.6,71.2,1013.22,0,0,0,0,0.029602
2021/08/24 03:49:00.000,n,19,15.84,11.88,19.08,18.6,71.2,1013.12,0,0,0,0,0.031357
2021/08/24 03:50:00.007,n,334,5.4,3.6,6.84,18.6,71.7,1013.12,0,0,0,0,0.031357
2021/08/24 03:51:00.004,n,352,10.08,9.72,10.8,18.6,71.5,1013.12,0,0,0,0,0.033112
2021/08/24 03:52:00.000,n,32,2.88,0.36,6.12,18.6,71.4,1013.12,0,0,0,0,0.030479
2021/08/24 03:53:00.013,n,14,9,5.76,10.8,18.5,71.5,1013.02,0,0,0,0,0.027847
2021/08/24 03:54:00.010,n,320,9,7.92,10.440002,18.5,72,1013.02,0,0,0,0,0.030479
2021/08/24 03:55:00.000,n,350,6.12,2.88,10.08,18.5,72.1,1013.02,0,0,0,0,0.028763
2021/08/24 03:56:00.000,n,331,7.56,2.52,11.88,18.5,71.9,1013.02,0,0,0,0,0.027847
2021/08/24 03:57:00.001,n,354,9.72,6.84,10.8,18.5,71.7,1013.02,0,0,0,0,0.028763
2021/08/24 03:58:00.000,n,3,19.8,18.72,20.880002,18.5,71.6,1013.02,0,0,0,0,0.029602
2021/08/24 03:59:00.000,n,325,14.76,5.04,24.48,18.5,71.8,1013.02,0,0,0,0,0.029602
2021/08/24 04:00:00.008,n,16,4.32,0.72,8.64,18.5,71.9,1013.02,0,0,0,0,0.029602
2021/08/24 04:01:00.005,n,7,10.08,4.68,12.24,18.5,72,1013.02,0,0,0,0,0.028763
2021/08/24 04:02:00.001,n,15,13.32,10.8,16.56,18.5,71.6,1013.02,0,0,0,0,0.027847
2021/08/24 04:03:00.015,n,348,10.08,6.84,15.12,18.5,71.6,1013.02,0,0,0,0,0.027847
2021/08/24 04:04:00.000,n,353,13.68,9.36,15.84,18.5,71.6,1013.02,0,0,0,0,0.028763
2021/08/24 04:05:00.000,n,0,7.56,6.12,9.72,18.5,71.8,1013.02,0,0,0,0,0.028763
2021/08/24 04:06:00.000,n,351,16.919998,15.48,17.64,18.5,71.9,1013.02,0,0,0,0,0.030479
2021/08/24 04:07:00.000,n,335,13.68,11.88,15.48,18.5,71.7,1013.02,0,0,0,0,0.027847
2021/08/24 04:08:00.004,n,345,14.04,12.6,15.48,18.5,71.7,1012.92,0,0,0,0,0.028763
2021/08/24 04:09:00.001,n,355,9,8.28,10.8,18.5,71.8,1012.92,0,0,0,0,0.02697
2021/08/24 04:10:00.000,n,59,3.6,0.36,7.2,18.5,71.8,1012.92,0,0,0,0,0.029602
2021/08/24 04:11:00.012,n,346,13.32,10.440002,14.4,18.5,71.8,1012.92,0,0,0,0,0.028763
2021/08/24 04:12:00.009,n,342,9.72,9,11.52,18.5,72.3,1012.92,0,0,0,0,0.026131
2021/08/24 04:13:00.000,n,350,6.48,3.6,9.72,18.5,71.9,1012.92,0,0,0,0,0.028763
2021/08/24 04:14:00.002,n,311,2.88,0.36,4.32,18.5,72.4,1013.02,0,0,0,0,0.02697
2021/08/24 04:15:00.000,n,20,15.84,14.04,17.28,18.5,71.8,1013.02,0,0,0,0,0.025253
2021/08/24 04:16:00.000,n,352,14.76,12.24,16.919998,18.5,71.9,1013.02,0,0,0,0,0.026131
2021/08/24 04:17:00.000,n,348,12.6,10.440002,14.04,18.5,71.9,1013.02,0,0,0,0,0.026131
2021/08/24 04:18:00.007,n,346,16.2,15.12,18,18.5,71.8,1013.02,0,0,0,0,0.026131
2021/08/24 04:19:00.004,n,6,11.16,9.36,14.4,18.5,72.1,1013.02,0,0,0,0,0.02697
2021/08/24 04:20:00.001,n,0,12.24,9.72,18.72,18.5,72,1013.02,0,0,0,0,0.023537
2021/08/24 04:21:00.000,n,353,9.36,7.56,11.52,18.5,72.1,1012.92,0,0,0,0,0.027847
2021/08/24 04:22:00.000,n,49,8.28,2.16,12.96,18.4,72.2,1012.92,0,0,0,0,0.02697
2021/08/24 04:23:00.000,n,343,13.68,13.32,16.2,18.4,72.2,1012.82,0,0,0,0,0.028763
2021/08/24 04:24:00.000,n,357,11.88,9,14.04,18.4,72.9,1012.82,0,0,0,0,0.031357
2021/08/24 04:25:00.004,n,18,8.28,6.84,9,18.4,72.4,1012.82,0,0,0,0,0.023537
2021/08/24 04:26:00.002,n,41,10.8,2.16,15.12,18.4,72.4,1012.82,0,0,0,0,0.020905
2021/08/24 04:27:00.000,n,19,11.88,6.48,15.84,18.4,72.3,1012.72,0,0,0,0,0.020905
2021/08/24 04:28:00.012,n,347,8.64,4.68,10.8,18.4,73.2,1012.72,0,0,0,0,0.023537
2021/08/24 04:29:00.009,n,31,11.88,2.16,15.84,18.4,72.3,1012.72,0,0,0,0,0.024376
2021/08/24 04:30:00.005,n,355,10.8,9,11.88,18.4,72.3,1012.82,0,0,0,0,0.018272
2021/08/24 04:31:00.002,n,351,7.56,6.12,8.64,18.4,72.4,1012.82,0,0,0,0,0.022621
2021/08/24 04:32:00.000,n,0,7.2,6.48,8.28,18.4,72.4,1012.82,0,0,0,0,0.023537
2021/08/24 04:33:00.000,n,0,11.52,10.440002,12.6,18.4,73.1,1012.82,0,0,0,0,0.023537
2021/08/24 04:34:00.000,n,345,8.28,5.76,9.72,18.4,72.3,1012.82,0,0,0,0,0.019188
2021/08/24 04:35:00.005,n,11,12.96,10.8,15.12,18.4,72.1,1012.72,0,0,0,0,0.019188
2021/08/24 04:36:00.002,n,221,1.44,0.36,1.8,18.4,72.9,1012.82,0,0,0,0,0.018272
2021/08/24 04:37:00.000,n,27,5.04,2.52,6.84,18.4,72.3,1012.82,0,0,0,0,0.020905
2021/08/24 04:38:00.013,n,357,11.16,9,14.04,18.4,71.9,1012.72,0,0,0,0,0.023537
2021/08/24 04:39:00.010,n,98,2.88,1.08,5.4,18.4,71.9,1012.82,0,0,0,0,0.020027
2021/08/24 04:40:00.000,n,353,10.08,7.56,12.24,18.4,71.8,1012.82,0,0,0,0,0.020905
2021/08/24 04:41:00.000,n,344,13.68,10.440002,16.56,18.4,71.8,1012.72,0,0,0,0,0.021782
2021/08/24 04:42:00.000,n,2,12.96,9,17.28,18.4,71.8,1012.72,0,0,0,0,0.024376
2021/08/24 04:43:00.000,n,18,11.52,10.8,12.24,18.4,71.7,1012.82,0,0,0,0,0.020027
2021/08/24 04:44:00.000,n,349,11.52,6.12,14.04,18.4,71.7,1012.72,0,0,0,0,0.022621
2021/08/24 04:45:00.007,n,41,10.08,5.4,14.4,18.4,71.6,1012.72,0,0,0,0,0.024376
2021/08/24 04:46:00.005,n,351,13.32,11.16,15.12,18.4,71.6,1012.72,0,0,0,0,0.027885
2021/08/24 04:47:00.013,n,22,13.68,11.52,16.2,18.4,71.5,1012.62,0,0,0,0,0.033989
2021/08/24 04:48:00.003,n,66,5.76,4.32,8.64,18.4,71.6,1012.62,0,0.2,0,0,0.032234
2021/08/24 04:49:00.000,n,350,8.28,6.84,9.72,18.4,71.6,1012.62,0.03,1.3,0,0,0.036583
2021/08/24 04:50:00.000,n,348,15.84,14.4,17.64,18.4,71.6,1012.62,0.03,0,0,0,0.032234